Hourly Data Report for July 25, 2021

CARIBOU POINT (AUT)
NOVA SCOTIA
Current Station Operator: ECCC - MSC

45°46'00.000" N
62°41'00.000" W
2.40 m
8200774
71415
WBK

Download Data

Hourly Data (July 2021)
Hourly Data Report for July 25, 2021
TIME
LST
Temp Definition
°C
Dew Point Definition
°C
Rel Hum Definition
%
Precip. Amount Definition
mm

Wind Dir Definition
10's deg

Wind Spd Definition
km/h
Visibility Definition
km
Stn Press Definition
kPa
Hmdx Definition


Wind Chill Definition


Weather Definition


00:00 15.5 13.8 90 0.0 23 8   101.66     LegendNANA
01:00 15.1 13.6 91 0.0 30 3   101.64     LegendNANA
02:00 14.7 13.5 92 0.0 27 2   101.64     LegendNANA
03:00 14.7 13.6 93 0.0 25 3   101.64     LegendNANA
04:00 14.5 13.6 94 0.0 23 6   101.64     LegendNANA
05:00 14.5 13.7 95 0.0 22 8   101.64     LegendNANA
06:00 15.3 14.2 93 0.0 19 9   101.67     LegendNANA
07:00 16.5 14.7 89 0.0 21 4   101.69     LegendNANA
08:00 18.0 15.2 84 0.0 18 5   101.68     LegendNANA
09:00 19.2 16.5 84 0.0 12 11   101.66     LegendNANA
10:00 19.0 16.6 86 0.0 10 11   101.62     LegendNANA
11:00 19.8 15.9 78 0.0 10 15   101.56     LegendNANA
12:00 20.2 16.4 79 0.0 9 14   101.51 25   LegendNANA
13:00 21.0 16.8 77 0.0 9 12   101.44 26   LegendNANA
14:00 21.1 17.4 80 0.0 8 12   101.41 27   LegendNANA
15:00 21.0 16.6 76 0.0 7 13   101.39 26   LegendNANA
16:00 20.7 16.5 77 0.0 9 15   101.38 26   LegendNANA
17:00 20.0 16.9 82 0.0 9 16   101.34 25   LegendNANA
18:00 20.6 16.3 76 0.0 12 9   101.31 25   LegendNANA
19:00 22.0 15.6 67 0.0 21 8   101.32 26   LegendNANA
20:00 19.8 14.5 72 0.0 20 12   101.34     LegendNANA
21:00 18.6 13.1 70 0.0 20 10   101.41     LegendNANA
22:00 17.6 13.7 78 0.0 21 10   101.40     LegendNANA
23:00 16.8 14.0 84 0.0 21 10   101.39     LegendNANA

Notes on Data Quality.

Legend

  • E = Estimated
  • M = Missing
  • NA = Not Available*
  • [empty] = Indicates an unobserved value
Date modified: